Vorticity
2 2 2 2 2 2 3 3 3 3 4 4 5 5 5 6 6 6 6 6 6 6 6 7 7 8 8 8 8 8 7 5 5 4 4 6 9 9 8 7 4 3 7 10 8 7 5 5 14 16 10 8 6 5 6 8 4 4 4 -2 5 12 6 2 1 5 2 -1 6 10 4 1 3 3 2 2 5 5 3 8 8 4 7 6 6 7 5 8
2 2 2 2 2 2 2 2 2 2 2 2 2 3 3 4 5 6 6 6 6 6 6 6 6 7 7 8 8 9 8 6 5 4 3 5 7 8 10 10 7 5 4 8 8 5 4 2 10 13 9 7 5 6 5 8 6 3 6 -1 2 12 8 2 2 7 5 3 9 7 5 6 6 6 6 7 5 6 6 7 8 5 6 5 5 8 3 6
5 5 5 5 5 4 4 4 4 3 3 3 2 2 2 2 2 4 4 4 6 7 7 6 6 6 6 7 8 9 9 8 7 5 4 5 5 6 9 11 12 10 2 5 11 6 0 4 12 11 8 6 5 7 4 6 7 5 6 1 2 10 10 8 10 11 6 5 7 5 8 8 6 7 10 10 5 8 10 6 8 9 7 4 7 8 1 5
7 7 7 7 7 7 7 7 6 6 6 5 5 4 3 3 2 2 2 3 4 5 6 7 6 6 6 6 7 9 9 9 9 6 4 5 5 4 6 8 11 13 6 4 12 8 -1 4 14 10 7 9 7 7 5 5 7 6 6 3 2 4 8 11 6 4 4 7 8 6 6 5 3 5 7 7 4 8 11 5 6 8 7 7 9 9 2 4
8 8 8 8 8 8 8 8 8 8 7 7 7 6 6 5 4 3 3 2 2 2 4 7 7 6 6 6 6 7 8 9 10 9 5 5 7 5 4 6 7 12 12 7 8 9 5 5 10 10 9 11 12 11 7 5 6 6 5 6 4 0 5 5 -5 -3 6 8 8 7 7 5 2 3 5 4 3 9 10 6 6 6 8 11 12 11 6 4
9 9 9 9 9 9 9 8 8 8 8 8 8 8 7 7 6 6 5 4 3 2 2 3 4 6 6 5 5 6 7 8 11 11 7 5 6 6 4 4 5 9 13 11 7 7 9 7 6 7 8 9 14 13 6 4 5 6 5 5 5 2 5 6 -1 1 7 9 9 6 7 6 0 0 3 5 6 8 9 6 5 5 6 9 11 12 9 6
11 10 10 10 10 10 9 9 9 9 9 9 8 8 8 8 8 7 7 7 6 5 3 2 2 4 6 6 6 5 5 7 9 10 9 7 6 7 5 3 5 6 10 14 10 5 7 10 6 4 5 6 11 11 4 3 5 6 6 4 4 4 5 7 5 6 6 10 11 3 4 7 2 2 3 4 6 7 7 5 5 6 5 7 10 10 10 8
12 12 12 12 12 11 11 11 10 10 10 9 9 9 9 9 9 8 8 8 7 7 6 5 3 2 3 4 6 6 5 5 6 9 10 9 7 7 6 4 4 4 6 11 12 7 6 10 8 5 4 1 2 6 6 6 5 6 8 5 4 3 4 4 5 8 6 6 7 -1 1 8 6 5 4 4 7 8 6 4 7 8 5 7 9 9 9 8
11 11 11 12 12 12 13 13 12 12 11 11 11 9 9 10 10 9 10 9 8 8 8 7 6 4 3 3 4 5 5 5 5 7 8 9 9 8 7 5 4 5 5 8 12 12 9 8 9 6 3 -1 -1 3 6 7 7 6 6 6 5 4 5 5 4 7 6 3 2 -5 -3 6 7 4 3 4 8 10 7 4 7 8 4 7 8 7 9 8
9 9 9 9 9 9 10 11 11 11 12 13 12 11 10 11 10 10 10 10 10 9 9 8 8 8 6 3 3 3 4 6 5 5 6 7 9 9 8 7 6 6 5 5 10 13 12 8 7 6 4 3 3 4 5 7 9 6 4 5 6 5 6 7 5 5 5 2 1 2 3 6 5 3 4 4 3 6 6 5 8 7 2 7 9 6 8 9
8 8 8 7 7 8 7 8 8 8 9 10 11 11 10 11 11 11 11 10 11 10 10 10 9 9 9 7 5 3 2 4 5 5 6 5 7 9 9 9 6 6 6 5 5 9 13 9 6 6 6 5 4 5 5 3 7 7 5 5 4 3 6 8 6 4 5 3 3 8 9 7 4 4 7 6 4 5 7 8 8 5 3 8 9 6 7 7
6 5 6 6 6 7 7 7 7 6 7 7 9 9 9 10 10 11 11 11 11 10 10 11 11 10 10 9 7 5 4 3 4 5 6 4 5 7 8 9 7 6 7 6 4 4 8 10 8 7 7 6 3 4 4 1 3 6 4 4 4 2 3 6 5 4 4 3 4 3 6 8 3 3 7 7 5 4 7 11 9 7 8 9 6 5 7 5
5 4 4 4 4 4 5 5 6 6 6 6 7 7 7 8 8 9 9 11 11 9 10 11 12 12 12 11 9 8 7 4 3 3 5 5 4 6 7 8 8 7 6 7 6 4 5 10 11 8 6 7 6 2 4 3 1 3 3 3 4 3 3 3 2 3 2 2 1 0 6 6 -2 1 7 7 4 2 7 10 8 10 10 6 4 6 6 4
7 7 6 6 6 6 6 5 5 5 4 5 6 5 5 6 7 8 8 9 9 8 9 10 11 12 13 14 12 9 9 7 5 4 4 5 4 5 6 8 9 7 5 4 6 7 6 9 11 11 7 6 7 4 4 4 2 0 1 4 4 3 5 4 3 4 2 2 1 3 10 5 -1 4 7 7 3 2 8 8 5 10 10 4 2 5 4 3
8 8 8 8 8 8 8 8 7 7 6 6 6 5 3 4 5 6 8 9 8 7 7 7 9 10 11 14 15 12 10 10 8 6 4 4 4 4 3 6 8 8 7 4 3 5 6 7 9 13 14 8 5 6 6 5 4 -1 -4 2 3 2 5 4 4 7 3 2 2 4 9 7 7 9 6 7 5 3 8 7 4 5 7 7 2 2 4 3
7 7 8 8 7 8 8 9 9 8 9 8 8 7 5 5 4 4 7 6 6 9 8 6 5 7 8 11 14 12 12 14 13 10 7 4 3 3 3 4 5 7 9 8 5 4 5 6 6 10 15 13 6 5 6 7 8 1 -5 -1 1 2 5 1 3 10 5 3 4 4 7 8 11 11 5 5 7 6 6 5 2 0 7 12 5 2 3 3
9 9 9 9 9 9 9 9 9 9 9 9 9 10 8 8 7 6 7 4 3 6 7 8 7 5 5 7 11 10 10 15 15 14 12 7 4 4 3 3 3 5 8 9 9 7 6 6 6 6 10 13 12 8 4 6 10 7 2 1 2 5 7 1 -0 6 6 5 5 5 6 6 10 12 7 5 6 5 5 6 3 2 6 9 7 4 1 3
9 10 10 10 9 9 9 9 10 10 9 9 9 9 10 10 9 9 9 6 4 4 4 6 7 6 5 4 6 7 7 10 13 15 14 12 9 5 3 2 1 3 5 7 10 10 7 7 7 5 5 7 11 10 8 9 11 10 8 7 6 5 7 5 2 3 4 4 4 7 8 6 9 12 7 7 6 3 5 5 3 3 4 6 10 6 0 3
5 6 7 7 8 8 8 8 8 9 10 10 10 9 8 9 10 10 11 9 8 7 4 4 5 6 8 6 4 6 7 6 8 12 13 13 13 9 5 3 2 2 3 3 6 10 9 8 6 6 6 6 9 13 15 17 14 8 7 8 8 7 8 9 6 4 3 2 4 6 7 8 12 11 6 8 7 3 4 5 4 2 1 9 13 5 1 5
4 5 5 5 5 5 5 5 5 5 6 8 10 11 11 10 11 11 12 11 10 10 9 6 4 4 6 7 5 6 6 6 5 7 10 11 13 12 9 6 4 2 3 3 2 5 9 9 7 7 8 8 9 12 14 18 18 12 8 7 8 9 11 12 8 6 4 3 4 5 4 8 14 11 7 9 5 3 5 4 5 1 0 10 11 4 3 4
8 8 7 6 4 4 4 3 2 1 1 3 6 10 12 13 13 13 15 15 10 9 11 9 7 6 5 5 5 5 5 6 6 5 6 9 11 13 11 9 6 4 4 4 2 2 5 7 10 10 8 5 6 8 9 12 17 16 11 8 7 8 11 14 11 7 5 4 4 4 5 6 10 11 10 10 4 5 8 4 3 3 4 8 8 6 4 5
10 9 7 6 5 5 6 5 2 2 3 4 6 10 13 14 15 12 14 17 14 11 10 10 9 9 7 5 5 5 5 6 7 7 6 6 8 11 13 12 9 6 6 4 2 3 4 4 9 13 8 4 5 6 6 7 11 15 14 12 10 7 9 13 13 9 4 6 7 6 6 5 6 10 14 13 7 9 10 4 3 5 3 3 5 8 5 7
7 6 4 6 6 6 8 8 7 8 9 10 11 13 15 17 19 17 14 15 17 17 14 13 11 9 10 9 7 6 5 5 6 8 7 6 6 6 10 13 11 8 6 5 2 3 4 0 7 13 8 5 5 5 6 6 8 10 13 14 11 8 8 11 15 12 4 5 10 9 8 7 5 7 13 13 9 8 7 3 4 5 1 -3 3 10 5 4
5 5 5 7 9 11 12 14 16 17 19 20 18 16 17 20 21 22 20 15 16 19 18 18 15 12 10 9 9 8 6 6 5 6 8 9 7 5 7 9 12 11 8 8 5 5 2 -2 6 10 6 7 6 5 7 5 5 7 11 13 11 11 9 8 12 11 5 5 9 9 10 10 4 3 9 11 7 5 2 0 1 2 -0 -3 4 10 4 -0
8 10 10 13 17 18 18 21 25 25 25 26 22 20 20 21 20 21 23 21 21 21 20 22 20 17 15 12 12 11 9 8 7 6 7 10 9 7 7 5 8 13 12 10 8 7 5 1 5 3 2 9 8 4 6 6 6 6 9 11 11 13 10 6 9 10 7 6 7 7 8 10 7 3 7 10 7 4 2 0 1 2 3 4 5 8 3 -1
12 14 15 19 23 22 23 28 28 27 28 28 28 28 25 25 25 23 22 23 24 23 20 20 21 22 19 16 15 14 14 13 11 9 5 8 11 9 8 5 5 9 11 12 11 9 7 5 5 1 0 8 8 6 4 5 7 5 10 14 12 14 11 5 7 9 8 7 7 6 4 7 8 6 8 9 7 6 3 2 1 1 3 5 5 4 4 3
15 16 20 24 24 23 28 31 28 26 28 28 29 30 29 31 30 26 24 21 20 22 22 20 22 27 26 21 19 16 18 16 14 16 9 5 9 11 11 10 6 7 8 9 11 11 10 8 6 2 0 4 8 8 3 5 7 4 8 12 10 13 13 6 6 7 8 9 7 6 5 3 5 8 8 7 8 5 2 2 1 1 2 2 3 5 6 3
21 23 27 27 24 24 26 26 22 20 21 22 21 19 21 25 23 17 16 16 16 18 19 18 18 23 26 26 23 18 21 20 14 18 17 9 10 11 12 13 10 8 6 4 8 11 13 13 9 4 1 3 7 6 6 9 5 2 7 9 9 13 13 10 7 4 7 11 7 5 4 1 4 10 5 6 10 4 3 6 3 2 3 1 0 5 4 -2
28 26 25 22 18 17 16 13 10 11 14 14 12 9 9 10 7 3 2 6 12 13 15 17 17 17 19 24 24 17 19 25 20 20 20 13 13 14 12 11 12 12 7 4 6 7 12 15 12 8 4 2 3 3 8 11 6 5 6 7 10 10 13 14 8 4 5 6 7 7 4 -1 5 12 4 5 14 15 15 12 5 3 3 3 1 2 3 -4
23 17 13 10 8 7 6 5 4 7 9 8 6 4 2 -0 -2 -3 -1 3 8 10 12 14 15 16 16 19 25 20 13 16 19 25 27 18 13 15 15 11 10 13 12 8 5 4 9 13 11 10 6 0 -1 1 7 9 9 10 4 4 10 8 11 14 10 7 0 -3 6 10 4 -4 5 16 7 2 13 26 28 11 2 4 1 2 2 -1 1 -1
11 6 4 3 3 5 4 4 5 7 6 5 5 3 0 0 0 -0 3 6 5 5 8 9 9 13 13 12 19 23 19 14 11 17 27 27 19 15 16 15 9 10 14 12 8 4 5 8 11 12 7 2 -0 -1 3 5 10 13 4 1 8 7 9 13 12 7 -6 -5 8 11 5 -3 4 19 11 -0 5 22 32 16 3 6 4 4 3 -3 0 3
4 2 4 5 6 8 9 10 11 11 11 11 10 9 7 6 6 7 8 9 7 5 5 5 4 7 9 10 11 16 19 20 17 15 18 24 26 20 16 17 12 8 11 13 10 6 2 5 13 16 11 5 2 -1 1 2 6 12 7 1 4 6 7 10 11 6 -5 -0 10 11 7 -5 -2 18 13 3 9 18 30 25 11 9 12 11 6 2 5 5
3 4 7 9 10 12 15 20 20 18 21 23 20 20 20 17 18 19 18 17 17 16 14 9 7 5 5 7 8 9 9 10 14 18 17 17 23 25 21 18 16 11 9 11 13 10 5 4 9 15 14 8 5 2 1 1 4 8 6 4 4 3 6 8 7 7 2 2 8 11 5 -11 -6 20 16 1 10 18 21 22 15 11 16 18 15 14 17 12
4 7 9 10 10 9 11 17 20 18 19 21 19 17 17 17 18 18 19 20 20 22 23 21 19 17 12 10 8 7 7 5 6 10 15 15 16 23 27 23 18 15 11 11 14 12 8 3 3 8 11 9 8 4 1 2 7 10 7 5 6 4 6 7 5 8 7 4 8 8 2 -8 -5 19 22 -1 -1 13 15 15 17 12 8 11 10 5 10 17
6 8 11 10 9 6 4 7 13 15 14 12 10 8 7 8 8 8 12 16 14 16 20 21 22 21 20 18 14 11 8 7 6 5 7 11 12 17 26 27 23 18 14 12 13 14 10 5 3 6 9 10 9 6 2 0 3 8 8 5 6 4 3 5 5 9 9 7 10 7 1 -2 -5 10 25 11 -1 9 14 13 14 7 -2 -2 1 -3 -4 5
8 9 10 10 11 11 7 5 6 12 14 10 6 5 3 3 3 3 4 7 9 10 10 11 13 14 16 17 17 17 14 11 10 7 6 7 9 12 19 28 28 21 17 15 14 14 13 9 5 5 10 13 11 7 6 1 -2 4 8 6 6 4 4 9 7 6 9 7 9 9 3 2 -1 4 18 16 5 6 8 6 7 8 3 -5 -2 6 5 -0
9 9 11 11 13 16 16 11 6 9 14 13 9 6 3 2 3 4 3 4 6 7 5 4 5 6 7 9 10 12 14 15 13 11 10 9 8 9 11 20 30 27 19 17 17 15 14 11 5 4 8 10 10 9 8 7 2 1 6 7 5 2 5 11 7 5 10 6 5 9 6 4 6 8 12 13 11 9 6 1 3 11 14 4 -4 4 12 7
10 12 13 13 14 16 18 17 12 8 11 16 15 10 6 5 5 4 4 6 7 8 8 7 6 6 6 7 7 6 6 9 10 10 11 11 10 11 10 12 23 31 26 17 17 19 15 9 6 7 6 7 13 11 9 11 6 2 7 8 3 2 5 8 7 5 7 6 5 8 7 6 6 7 11 13 12 10 11 10 11 13 14 11 2 -2 7 13
12 13 12 12 14 14 15 18 16 10 10 14 15 12 8 8 8 7 7 8 9 9 10 8 7 6 7 7 8 8 7 6 6 7 9 10 10 12 12 9 11 25 31 22 17 21 19 9 7 10 7 6 14 13 8 12 9 5 9 8 3 5 5 5 9 7 4 7 8 6 8 8 5 3 7 14 15 9 8 12 16 16 14 16 16 6 3 9
12 11 10 12 12 12 13 16 16 14 12 12 13 12 11 11 12 11 9 9 10 10 9 7 5 5 7 8 8 9 11 10 9 8 8 8 9 10 13 13 8 13 26 27 20 20 22 13 5 9 11 6 10 12 9 11 11 6 7 6 4 7 4 1 7 7 5 8 9 7 7 8 7 5 3 9 15 13 8 10 13 13 14 17 21 21 14 6
11 9 11 13 11 12 15 15 15 16 15 13 12 13 15 16 15 12 10 10 9 8 6 7 9 10 11 12 13 11 12 14 13 11 10 9 10 9 10 14 12 9 17 26 24 20 23 21 7 4 12 9 6 12 10 9 10 5 4 4 4 7 4 1 5 5 4 6 7 9 9 6 7 8 5 6 11 13 10 10 12 10 10 10 8 15 23 18
10 9 11 14 15 17 18 17 17 16 14 13 14 17 20 20 16 11 8 7 7 7 9 12 14 17 17 16 16 14 9 10 14 15 13 12 13 11 9 13 15 11 11 19 24 21 21 25 13 2 10 11 6 12 15 12 11 8 6 4 3 7 5 3 5 2 3 6 3 7 13 10 7 8 7 7 10 17 15 9 10 10 8 7 -0 -1 12 23
11 11 14 17 18 19 20 20 19 16 13 15 18 22 22 17 11 6 5 8 11 10 13 16 14 14 16 18 22 26 26 27 30 29 22 18 19 17 12 12 14 12 10 14 24 22 17 25 22 8 8 9 6 12 17 16 13 9 9 5 3 7 6 5 5 -2 1 7 2 7 16 13 10 8 6 5 5 12 16 10 8 8 8 8 5 2 2 9
13 12 16 18 18 18 20 21 18 15 15 17 20 20 17 12 8 8 9 12 14 14 13 15 14 16 27 34 35 35 36 35 36 36 31 26 27 27 20 15 13 13 9 11 23 23 17 23 24 13 7 1 2 14 17 15 13 9 10 8 4 7 6 7 8 1 1 4 2 8 13 11 14 11 6 7 2 -1 6 11 9 8 8 7 6 7 6 2
11 10 12 15 17 18 20 20 18 17 17 17 17 14 11 11 10 11 13 14 15 16 13 14 20 29 38 36 26 20 20 20 22 27 30 27 27 31 30 21 15 14 9 8 19 26 22 19 17 15 12 -3 -5 14 19 13 11 8 7 9 7 7 7 7 7 6 4 1 3 8 3 7 23 16 4 10 9 2 6 12 13 9 8 8 4 4 8 8
11 10 10 13 18 18 18 20 19 18 16 14 12 10 9 10 9 10 14 17 17 15 16 24 32 33 30 23 17 20 24 24 25 27 26 24 24 27 32 30 20 15 13 8 13 25 27 19 13 18 20 2 -8 11 22 14 11 10 5 5 7 6 7 7 5 7 8 1 3 7 -4 3 24 15 1 8 13 12 12 13 18 16 11 11 8 4 6 9
10 9 10 15 19 17 16 18 17 15 15 12 10 9 10 11 11 12 15 18 18 18 26 36 32 22 20 20 20 23 25 23 23 21 18 20 22 21 25 31 25 17 18 13 10 23 29 20 13 16 22 10 -7 3 22 18 11 13 8 4 8 7 5 8 4 4 9 6 4 6 -4 -1 17 15 6 8 11 13 17 18 22 20 13 12 11 11 14 11
9 10 11 15 18 17 17 17 15 15 13 12 11 10 11 13 13 14 17 20 18 23 35 35 22 17 19 16 14 15 14 14 13 13 13 16 21 21 21 27 27 19 21 18 9 17 30 24 13 13 21 20 0 -4 16 21 11 12 11 5 9 10 5 7 6 2 8 10 4 4 1 -0 14 21 11 6 8 11 13 12 12 11 9 9 11 13 16 14
10 11 11 13 16 17 19 17 15 14 11 11 12 10 10 14 15 15 18 21 20 27 41 31 11 9 10 4 7 12 13 17 16 14 16 14 16 21 20 24 29 22 23 26 15 13 26 25 14 13 21 25 11 -3 7 20 15 11 11 5 6 11 7 5 7 3 5 8 2 4 7 3 11 19 9 4 10 10 6 5 4 6 7 6 9 13 15 19
10 11 10 13 15 16 18 16 15 14 11 10 10 10 11 14 17 18 19 24 26 28 37 28 7 4 8 4 6 9 9 16 16 11 13 11 11 17 17 17 25 24 22 29 25 15 20 26 19 16 19 21 15 3 2 14 17 10 11 10 4 8 10 4 5 6 5 7 5 7 10 1 -0 11 11 8 10 7 3 2 -1 2 7 7 10 15 17 23
9 10 10 12 14 16 17 16 15 13 11 9 8 11 13 13 18 21 20 27 29 20 22 24 14 11 16 13 11 11 9 10 9 6 7 6 5 11 14 13 19 24 21 26 32 22 15 24 23 16 17 19 17 13 5 7 15 12 11 14 7 4 10 7 3 6 6 5 5 8 11 -0 -7 6 14 9 7 5 2 2 2 4 9 11 12 15 15 17
8 10 12 12 14 17 18 16 14 11 11 10 8 11 14 13 19 25 24 27 25 14 12 17 16 14 17 16 15 16 15 12 9 7 7 8 9 11 13 11 13 21 21 22 33 27 14 23 27 16 17 20 16 19 13 3 9 14 12 15 11 3 6 8 4 4 4 4 4 7 12 5 -3 7 17 10 6 8 5 5 9 8 6 9 10 12 14 12
Height
5861 5861 5860 5860 5860 5859 5859 5859 5858 5858 5857 5857 5857 5857 5857 5857 5857 5856 5856 5856 5856 5856 5856 5856 5856 5856 5856 5856 5857 5858 5858 5858 5858 5859 5860 5860 5860 5860 5861 5861 5861 5862 5863 5865 5867 5868 5869 5870 5871 5871 5872 5873 5874 5875 5877 5878 5880 5881 5883 5885 5885 5886 5886 5886 5887 5889 5890 5891 5891 5892 5892 5893 5893 5894 5894 5895 5895 5895 5896 5896 5897 5897 5898 5898 5897 5897 5898 5899
5859 5858 5858 5858 5857 5857 5857 5856 5856 5856 5855 5855 5855 5855 5855 5855 5855 5854 5854 5853 5854 5854 5854 5854 5854 5854 5854 5854 5855 5856 5856 5857 5857 5858 5859 5858 5859 5859 5860 5860 5860 5861 5862 5863 5865 5866 5868 5869 5870 5870 5871 5872 5873 5875 5876 5878 5879 5881 5882 5884 5885 5886 5886 5886 5886 5888 5889 5890 5891 5892 5892 5892 5893 5894 5894 5894 5895 5895 5895 5896 5897 5897 5897 5897 5897 5897 5897 5899
5856 5856 5855 5855 5855 5854 5854 5854 5854 5853 5853 5853 5853 5853 5853 5853 5853 5852 5852 5851 5851 5852 5852 5852 5852 5852 5852 5852 5853 5853 5854 5855 5855 5857 5857 5857 5857 5858 5859 5859 5859 5860 5860 5862 5863 5864 5865 5866 5867 5868 5869 5870 5872 5874 5875 5877 5878 5880 5882 5883 5884 5885 5886 5885 5886 5887 5888 5889 5891 5892 5892 5892 5893 5893 5894 5894 5894 5895 5896 5896 5896 5897 5897 5897 5897 5897 5897 5899
5853 5853 5853 5852 5852 5851 5851 5851 5851 5850 5850 5850 5850 5850 5850 5850 5850 5850 5850 5850 5849 5850 5850 5850 5850 5850 5851 5851 5851 5851 5852 5853 5854 5855 5856 5855 5856 5856 5857 5858 5858 5858 5859 5861 5862 5863 5863 5864 5866 5867 5867 5869 5871 5873 5874 5876 5877 5879 5880 5881 5883 5885 5885 5885 5886 5886 5888 5889 5890 5892 5891 5892 5892 5893 5893 5894 5894 5895 5896 5896 5896 5896 5897 5897 5897 5897 5897 5899
5851 5850 5850 5849 5849 5848 5848 5848 5847 5847 5847 5847 5847 5847 5847 5847 5847 5847 5847 5847 5847 5847 5848 5849 5849 5848 5849 5849 5849 5849 5850 5851 5852 5853 5854 5853 5854 5854 5856 5856 5856 5857 5858 5860 5861 5862 5863 5865 5866 5866 5867 5868 5870 5872 5874 5874 5876 5878 5879 5880 5882 5884 5885 5885 5886 5887 5888 5889 5890 5891 5891 5891 5892 5892 5893 5893 5894 5895 5896 5896 5896 5896 5897 5897 5897 5897 5897 5898
5848 5848 5847 5846 5846 5845 5845 5844 5844 5844 5844 5844 5844 5844 5844 5844 5844 5844 5844 5844 5845 5845 5845 5846 5846 5846 5846 5847 5847 5847 5847 5848 5850 5851 5850 5851 5852 5852 5854 5854 5855 5855 5857 5858 5859 5861 5862 5864 5865 5866 5867 5868 5870 5872 5873 5873 5875 5876 5878 5880 5881 5883 5884 5885 5886 5887 5888 5888 5889 5891 5890 5891 5891 5891 5892 5893 5893 5894 5895 5896 5896 5896 5897 5896 5897 5897 5897 5897
5846 5845 5844 5844 5843 5842 5842 5841 5841 5841 5841 5841 5841 5841 5840 5840 5840 5841 5841 5841 5842 5842 5842 5843 5844 5844 5844 5844 5845 5845 5845 5846 5848 5847 5847 5849 5850 5850 5852 5852 5853 5854 5855 5856 5857 5859 5861 5863 5864 5866 5866 5867 5870 5871 5871 5872 5874 5875 5877 5878 5879 5881 5882 5883 5884 5886 5887 5888 5889 5890 5889 5890 5890 5891 5891 5892 5893 5894 5895 5896 5896 5896 5896 5896 5897 5897 5897 5897
5843 5842 5841 5841 5840 5840 5839 5838 5838 5838 5837 5837 5837 5837 5837 5837 5837 5837 5837 5837 5838 5839 5839 5840 5841 5841 5841 5842 5842 5842 5842 5844 5845 5845 5845 5847 5848 5848 5849 5850 5851 5852 5853 5853 5854 5856 5858 5861 5862 5863 5865 5866 5868 5869 5870 5871 5873 5874 5875 5876 5877 5878 5880 5881 5883 5884 5886 5887 5889 5890 5890 5890 5890 5890 5891 5892 5893 5894 5894 5895 5896 5896 5896 5896 5896 5897 5897 5897
5841 5840 5839 5838 5837 5837 5836 5835 5835 5835 5834 5834 5834 5834 5834 5834 5834 5834 5834 5834 5834 5835 5836 5836 5837 5838 5838 5839 5839 5840 5840 5841 5842 5842 5843 5844 5845 5845 5846 5847 5848 5849 5851 5851 5853 5854 5857 5859 5860 5861 5862 5863 5864 5866 5868 5870 5872 5872 5872 5873 5875 5876 5877 5880 5882 5883 5885 5886 5888 5890 5890 5890 5890 5890 5891 5892 5893 5894 5895 5895 5896 5896 5896 5896 5896 5896 5896 5897
5838 5838 5837 5836 5835 5834 5833 5833 5832 5832 5831 5830 5830 5831 5831 5831 5830 5830 5830 5830 5830 5831 5832 5833 5833 5834 5835 5835 5836 5836 5836 5837 5838 5839 5840 5841 5842 5842 5843 5844 5845 5846 5848 5849 5851 5852 5854 5855 5855 5856 5857 5858 5860 5863 5865 5869 5870 5869 5868 5871 5873 5874 5876 5879 5880 5882 5884 5885 5887 5889 5890 5890 5890 5889 5890 5891 5892 5893 5894 5895 5895 5895 5895 5895 5895 5896 5896 5897
5836 5835 5834 5834 5833 5831 5831 5830 5829 5829 5828 5827 5827 5827 5828 5827 5827 5826 5826 5826 5827 5827 5828 5829 5830 5830 5831 5832 5832 5832 5833 5835 5835 5836 5837 5838 5838 5839 5840 5841 5842 5843 5844 5847 5848 5848 5849 5850 5851 5853 5855 5856 5859 5860 5863 5866 5867 5866 5866 5869 5871 5872 5874 5877 5879 5881 5882 5884 5886 5887 5888 5890 5890 5889 5890 5890 5891 5892 5894 5894 5895 5894 5895 5895 5895 5895 5896 5897
5833 5833 5832 5831 5830 5829 5828 5827 5827 5826 5825 5824 5824 5824 5824 5824 5823 5823 5823 5823 5823 5824 5825 5825 5826 5826 5827 5827 5827 5829 5830 5831 5832 5832 5833 5834 5835 5836 5836 5838 5838 5839 5841 5843 5844 5844 5845 5847 5849 5852 5854 5856 5857 5859 5860 5862 5863 5863 5864 5867 5869 5870 5872 5876 5877 5879 5881 5883 5884 5885 5887 5889 5889 5888 5889 5890 5890 5891 5893 5894 5895 5894 5894 5895 5895 5895 5896 5896
5830 5830 5829 5828 5827 5826 5825 5824 5824 5823 5822 5821 5821 5821 5821 5820 5820 5819 5819 5819 5820 5821 5821 5821 5822 5822 5822 5822 5823 5825 5826 5827 5828 5829 5830 5832 5832 5833 5833 5834 5835 5836 5838 5839 5840 5841 5843 5844 5847 5849 5851 5852 5854 5856 5858 5860 5860 5860 5862 5865 5867 5867 5871 5874 5875 5877 5880 5881 5882 5884 5887 5888 5887 5887 5888 5889 5890 5891 5892 5893 5894 5894 5894 5894 5895 5895 5895 5896
5827 5826 5825 5824 5823 5822 5821 5821 5820 5819 5819 5818 5817 5817 5817 5816 5816 5816 5815 5815 5817 5817 5817 5818 5818 5818 5818 5818 5820 5821 5821 5822 5824 5826 5828 5829 5829 5829 5831 5832 5833 5834 5835 5836 5837 5839 5841 5843 5844 5845 5847 5849 5851 5853 5856 5857 5857 5858 5860 5862 5864 5865 5869 5872 5873 5875 5877 5879 5881 5884 5887 5887 5886 5887 5887 5887 5889 5890 5890 5892 5893 5893 5893 5894 5895 5895 5895 5895
5823 5822 5821 5820 5819 5818 5817 5817 5816 5815 5815 5814 5813 5813 5813 5812 5812 5811 5810 5812 5813 5813 5814 5814 5814 5814 5814 5814 5815 5816 5817 5818 5821 5823 5824 5825 5826 5826 5827 5829 5829 5831 5832 5832 5833 5836 5838 5840 5842 5843 5846 5847 5848 5849 5852 5853 5855 5856 5856 5859 5862 5864 5868 5870 5871 5874 5875 5877 5879 5882 5885 5885 5885 5887 5886 5886 5888 5888 5889 5891 5892 5892 5893 5894 5894 5895 5895 5895
5819 5818 5816 5816 5815 5814 5813 5812 5812 5811 5811 5810 5809 5809 5808 5807 5807 5806 5806 5808 5809 5809 5810 5810 5810 5811 5810 5810 5811 5811 5813 5815 5817 5819 5820 5821 5822 5822 5823 5825 5827 5828 5829 5830 5831 5833 5835 5837 5839 5841 5843 5843 5844 5847 5850 5851 5852 5852 5853 5858 5861 5863 5867 5868 5869 5872 5874 5874 5877 5880 5883 5884 5884 5886 5885 5885 5886 5887 5888 5889 5890 5891 5892 5894 5894 5895 5895 5895
5815 5814 5812 5811 5810 5809 5808 5808 5807 5807 5806 5805 5804 5804 5803 5802 5801 5800 5800 5803 5804 5804 5805 5805 5806 5807 5806 5807 5807 5807 5808 5811 5813 5814 5815 5817 5817 5818 5819 5821 5823 5824 5825 5826 5828 5830 5832 5835 5837 5838 5839 5840 5842 5844 5846 5847 5849 5851 5853 5857 5860 5862 5865 5866 5868 5870 5871 5872 5874 5877 5881 5882 5883 5884 5884 5884 5885 5886 5887 5888 5889 5891 5892 5893 5894 5894 5894 5894
5811 5809 5808 5806 5806 5805 5804 5803 5802 5802 5801 5800 5798 5798 5797 5796 5795 5793 5794 5797 5798 5799 5800 5800 5801 5801 5802 5803 5803 5803 5804 5805 5807 5808 5810 5812 5813 5814 5815 5816 5817 5819 5820 5822 5824 5827 5829 5832 5833 5834 5835 5837 5839 5842 5844 5847 5851 5853 5854 5857 5859 5860 5862 5865 5866 5868 5868 5870 5872 5874 5878 5880 5881 5883 5883 5883 5883 5884 5885 5886 5888 5889 5891 5892 5893 5894 5894 5894
5806 5804 5803 5801 5800 5799 5798 5798 5797 5797 5797 5795 5793 5792 5791 5790 5789 5787 5788 5791 5792 5792 5793 5794 5795 5795 5797 5798 5799 5800 5799 5799 5801 5802 5805 5807 5808 5808 5809 5811 5812 5814 5816 5818 5822 5824 5826 5828 5829 5830 5834 5838 5841 5843 5845 5848 5851 5852 5853 5855 5857 5858 5861 5863 5864 5865 5865 5866 5869 5872 5875 5877 5878 5880 5882 5881 5882 5882 5883 5884 5886 5888 5890 5892 5892 5893 5894 5894
5801 5799 5797 5796 5795 5793 5792 5791 5791 5791 5791 5790 5788 5787 5785 5784 5783 5780 5780 5784 5786 5785 5786 5787 5789 5789 5791 5793 5794 5795 5794 5792 5794 5796 5799 5801 5802 5802 5804 5805 5807 5809 5811 5816 5819 5820 5821 5822 5825 5831 5837 5839 5840 5841 5842 5844 5847 5848 5849 5851 5853 5855 5858 5861 5862 5862 5862 5862 5866 5870 5872 5873 5874 5877 5880 5879 5879 5880 5881 5883 5886 5888 5890 5891 5892 5893 5893 5893
5796 5794 5792 5790 5789 5787 5786 5785 5784 5783 5783 5784 5783 5782 5779 5777 5776 5774 5773 5775 5778 5779 5779 5780 5782 5783 5785 5787 5788 5788 5788 5787 5788 5790 5793 5796 5796 5797 5798 5800 5802 5805 5809 5812 5813 5813 5814 5816 5824 5833 5835 5834 5834 5836 5838 5840 5842 5843 5845 5848 5850 5853 5856 5859 5859 5859 5858 5859 5863 5867 5869 5871 5872 5874 5876 5876 5877 5878 5880 5883 5885 5887 5888 5890 5891 5892 5892 5893
5791 5789 5786 5784 5782 5780 5778 5778 5777 5776 5775 5775 5775 5775 5773 5770 5769 5769 5768 5767 5768 5771 5772 5773 5775 5776 5778 5780 5781 5782 5781 5781 5783 5784 5787 5790 5791 5792 5793 5795 5798 5801 5804 5805 5806 5808 5809 5816 5827 5831 5829 5829 5830 5831 5833 5836 5838 5839 5841 5843 5847 5850 5854 5856 5857 5857 5856 5857 5861 5863 5865 5868 5869 5870 5872 5873 5876 5877 5879 5881 5882 5884 5886 5888 5889 5890 5892 5893
5784 5782 5780 5777 5775 5774 5772 5771 5770 5768 5767 5766 5766 5767 5765 5763 5761 5762 5763 5761 5761 5762 5764 5765 5766 5769 5771 5772 5773 5775 5774 5775 5776 5778 5782 5784 5786 5787 5788 5791 5793 5796 5797 5798 5800 5803 5807 5817 5826 5825 5822 5824 5826 5827 5830 5832 5834 5835 5837 5840 5844 5848 5851 5854 5855 5854 5852 5854 5858 5859 5861 5865 5866 5866 5868 5871 5873 5875 5876 5878 5879 5881 5883 5885 5887 5888 5890 5891
5778 5776 5774 5771 5770 5768 5766 5765 5763 5761 5759 5758 5757 5758 5757 5755 5753 5754 5756 5755 5754 5755 5756 5757 5758 5761 5763 5763 5766 5767 5767 5768 5769 5772 5776 5778 5780 5782 5784 5787 5789 5790 5793 5794 5796 5799 5805 5815 5820 5816 5816 5820 5822 5824 5826 5828 5831 5832 5834 5838 5842 5845 5848 5851 5852 5850 5849 5851 5855 5855 5856 5859 5862 5863 5866 5869 5870 5871 5872 5874 5875 5878 5880 5881 5883 5885 5888 5889
5772 5770 5768 5765 5763 5762 5760 5758 5756 5754 5752 5750 5749 5749 5749 5747 5746 5747 5748 5748 5748 5748 5749 5749 5750 5752 5754 5756 5759 5759 5760 5761 5762 5765 5770 5772 5774 5776 5778 5781 5784 5787 5789 5790 5791 5794 5802 5810 5813 5810 5811 5816 5818 5820 5823 5825 5828 5830 5833 5837 5840 5842 5844 5846 5847 5846 5846 5848 5851 5852 5851 5855 5858 5861 5865 5867 5867 5868 5870 5871 5873 5875 5877 5879 5881 5884 5887 5889
5766 5764 5762 5760 5757 5756 5754 5753 5750 5748 5745 5743 5741 5742 5741 5740 5740 5740 5741 5742 5742 5741 5742 5742 5743 5745 5747 5749 5751 5751 5752 5753 5754 5757 5761 5765 5768 5769 5772 5775 5778 5782 5783 5785 5785 5789 5797 5805 5807 5804 5806 5810 5812 5815 5819 5822 5824 5828 5833 5835 5835 5837 5838 5840 5842 5842 5842 5845 5848 5848 5847 5850 5854 5857 5862 5864 5864 5866 5867 5869 5871 5874 5876 5878 5880 5883 5885 5888
5761 5758 5757 5755 5752 5750 5749 5748 5746 5743 5741 5739 5736 5736 5735 5734 5734 5734 5735 5736 5736 5736 5736 5736 5736 5737 5740 5742 5743 5744 5744 5745 5747 5749 5752 5757 5761 5763 5766 5768 5771 5775 5777 5777 5778 5783 5793 5799 5800 5799 5801 5804 5807 5811 5816 5819 5822 5827 5831 5830 5829 5832 5834 5835 5838 5838 5839 5843 5844 5844 5843 5845 5848 5852 5857 5860 5862 5864 5865 5867 5870 5872 5874 5877 5880 5881 5884 5886
5756 5753 5752 5750 5748 5746 5745 5744 5742 5740 5738 5736 5734 5732 5731 5730 5730 5729 5730 5730 5731 5732 5731 5731 5731 5731 5733 5735 5736 5737 5736 5738 5740 5741 5744 5749 5754 5757 5759 5760 5763 5767 5769 5770 5773 5779 5788 5794 5795 5795 5797 5801 5805 5811 5815 5815 5819 5825 5827 5825 5826 5829 5830 5831 5833 5833 5836 5838 5837 5838 5839 5840 5844 5850 5853 5855 5858 5861 5863 5866 5869 5870 5873 5875 5878 5880 5882 5884
5751 5749 5747 5746 5744 5743 5742 5741 5740 5738 5736 5733 5731 5730 5729 5728 5727 5726 5726 5725 5726 5727 5728 5728 5727 5726 5728 5728 5729 5731 5731 5732 5732 5733 5737 5741 5745 5749 5750 5751 5755 5759 5762 5765 5768 5774 5782 5788 5788 5789 5793 5799 5804 5809 5810 5810 5814 5820 5821 5820 5823 5824 5825 5826 5826 5828 5831 5828 5828 5834 5836 5835 5840 5846 5849 5850 5855 5860 5863 5866 5868 5869 5872 5873 5876 5879 5881 5883
5748 5746 5745 5743 5742 5741 5739 5737 5736 5735 5733 5731 5729 5728 5726 5725 5724 5723 5723 5722 5722 5723 5724 5725 5724 5723 5724 5723 5723 5724 5726 5726 5726 5727 5730 5733 5737 5740 5742 5745 5748 5751 5755 5759 5762 5768 5776 5779 5780 5783 5789 5795 5800 5802 5803 5805 5810 5815 5815 5815 5817 5817 5819 5821 5820 5824 5823 5817 5822 5832 5833 5832 5836 5841 5845 5848 5855 5860 5862 5864 5866 5868 5869 5871 5874 5876 5878 5881
5745 5743 5742 5741 5739 5738 5736 5733 5731 5730 5729 5728 5726 5725 5723 5722 5721 5720 5718 5718 5718 5719 5721 5721 5721 5720 5720 5720 5719 5718 5719 5720 5721 5722 5723 5725 5728 5730 5733 5737 5740 5744 5748 5751 5756 5761 5767 5771 5775 5779 5783 5788 5792 5794 5796 5799 5804 5808 5808 5809 5810 5811 5813 5814 5815 5817 5812 5810 5821 5831 5832 5829 5829 5837 5844 5848 5854 5857 5859 5863 5865 5866 5868 5869 5872 5873 5875 5878
5743 5741 5739 5737 5735 5734 5733 5730 5728 5725 5724 5723 5721 5720 5719 5717 5717 5716 5714 5714 5713 5714 5717 5716 5716 5716 5715 5716 5715 5715 5715 5714 5715 5717 5718 5719 5720 5722 5725 5728 5732 5737 5738 5743 5749 5753 5760 5767 5770 5773 5777 5781 5785 5786 5789 5792 5796 5799 5801 5802 5804 5805 5807 5807 5808 5809 5806 5810 5822 5829 5828 5822 5823 5837 5844 5845 5850 5855 5858 5862 5863 5865 5867 5869 5871 5873 5874 5876
5740 5737 5735 5734 5732 5730 5728 5726 5724 5721 5719 5718 5716 5715 5714 5713 5712 5712 5711 5709 5708 5709 5711 5710 5711 5711 5710 5710 5710 5711 5711 5710 5710 5711 5712 5713 5713 5715 5717 5720 5725 5728 5730 5736 5742 5746 5754 5760 5761 5766 5771 5773 5776 5780 5784 5787 5790 5793 5794 5796 5798 5799 5801 5802 5804 5806 5806 5811 5821 5827 5825 5817 5820 5836 5841 5842 5849 5853 5857 5859 5860 5862 5864 5867 5869 5871 5873 5874
5736 5734 5732 5730 5728 5726 5724 5721 5719 5717 5715 5714 5712 5711 5710 5709 5708 5708 5707 5705 5704 5704 5705 5704 5704 5705 5705 5705 5705 5706 5706 5705 5705 5705 5706 5707 5708 5708 5710 5713 5717 5720 5724 5729 5734 5738 5745 5751 5754 5758 5762 5765 5769 5774 5780 5784 5788 5790 5793 5794 5795 5797 5800 5802 5804 5806 5806 5811 5820 5824 5819 5811 5818 5834 5840 5842 5846 5850 5854 5857 5858 5860 5861 5863 5865 5866 5868 5871
5732 5730 5728 5725 5723 5722 5720 5717 5715 5713 5712 5711 5709 5707 5706 5705 5704 5704 5702 5701 5700 5699 5699 5699 5699 5699 5699 5699 5699 5700 5701 5701 5700 5700 5701 5701 5702 5703 5704 5707 5710 5714 5718 5721 5725 5730 5737 5744 5749 5751 5756 5760 5764 5768 5774 5777 5781 5786 5790 5790 5791 5796 5800 5801 5802 5806 5807 5810 5817 5818 5811 5809 5820 5833 5839 5840 5842 5846 5851 5855 5856 5857 5858 5859 5860 5861 5864 5866
5729 5727 5724 5721 5719 5717 5716 5713 5711 5710 5708 5707 5705 5704 5702 5701 5700 5699 5698 5697 5696 5695 5695 5694 5694 5694 5694 5694 5694 5694 5694 5695 5695 5695 5695 5695 5697 5698 5699 5702 5704 5707 5710 5713 5717 5722 5729 5738 5743 5745 5751 5755 5758 5763 5768 5771 5776 5781 5782 5784 5790 5795 5796 5796 5799 5804 5805 5806 5811 5813 5810 5812 5822 5831 5836 5837 5839 5843 5848 5851 5854 5856 5856 5857 5858 5860 5861 5863
5725 5723 5720 5718 5715 5712 5711 5709 5707 5705 5703 5702 5701 5699 5698 5697 5696 5695 5694 5693 5692 5691 5690 5689 5689 5689 5689 5689 5689 5688 5689 5689 5689 5690 5689 5689 5692 5693 5694 5697 5698 5701 5704 5706 5710 5714 5722 5732 5737 5739 5745 5749 5753 5759 5764 5769 5774 5776 5779 5785 5790 5790 5790 5793 5796 5800 5800 5800 5804 5808 5809 5812 5819 5826 5832 5835 5837 5840 5845 5849 5852 5854 5855 5856 5857 5859 5860 5862
5722 5720 5717 5714 5711 5708 5706 5704 5702 5700 5698 5697 5696 5694 5693 5692 5691 5690 5689 5688 5687 5686 5685 5684 5684 5683 5683 5683 5683 5683 5683 5683 5683 5684 5683 5683 5685 5687 5689 5691 5692 5695 5697 5700 5703 5708 5715 5724 5729 5733 5738 5743 5748 5754 5759 5766 5770 5773 5778 5783 5783 5782 5786 5789 5789 5791 5793 5792 5796 5802 5805 5808 5815 5822 5828 5832 5835 5839 5843 5847 5849 5851 5853 5855 5856 5857 5859 5861
5719 5716 5713 5710 5707 5704 5701 5699 5697 5695 5693 5692 5690 5689 5688 5687 5686 5685 5684 5683 5681 5680 5679 5679 5678 5677 5676 5676 5676 5676 5676 5676 5677 5677 5676 5676 5678 5682 5684 5686 5687 5688 5690 5693 5697 5702 5708 5714 5721 5727 5733 5738 5742 5747 5754 5761 5766 5770 5774 5775 5774 5777 5784 5786 5786 5788 5790 5789 5793 5799 5801 5804 5812 5820 5825 5829 5834 5837 5840 5844 5847 5849 5851 5854 5856 5856 5857 5859
5715 5711 5708 5706 5703 5700 5697 5695 5693 5691 5689 5687 5685 5684 5683 5682 5681 5680 5678 5677 5676 5674 5673 5672 5671 5670 5669 5668 5668 5668 5668 5668 5669 5669 5670 5670 5672 5675 5677 5680 5682 5683 5684 5687 5690 5695 5700 5705 5713 5722 5727 5731 5736 5742 5749 5755 5759 5763 5765 5767 5768 5773 5779 5782 5782 5784 5787 5788 5791 5795 5797 5802 5811 5819 5822 5826 5831 5834 5837 5840 5844 5847 5849 5852 5854 5855 5856 5857
5711 5707 5704 5702 5699 5696 5694 5691 5688 5686 5684 5682 5681 5679 5678 5677 5676 5674 5673 5671 5670 5668 5667 5665 5664 5662 5661 5660 5659 5659 5660 5660 5660 5661 5661 5663 5665 5667 5670 5673 5676 5677 5678 5681 5683 5688 5692 5696 5705 5716 5720 5724 5731 5738 5744 5748 5751 5754 5757 5760 5763 5769 5773 5775 5775 5778 5782 5783 5787 5790 5792 5799 5809 5815 5817 5821 5827 5830 5834 5837 5840 5844 5846 5849 5852 5854 5855 5856
5707 5704 5701 5699 5695 5693 5690 5687 5685 5682 5680 5678 5676 5675 5673 5672 5671 5669 5668 5666 5664 5662 5660 5657 5655 5654 5653 5652 5650 5650 5651 5650 5651 5651 5652 5654 5657 5659 5662 5666 5669 5671 5672 5675 5677 5681 5685 5688 5697 5709 5715 5720 5729 5735 5738 5741 5743 5746 5751 5755 5759 5763 5767 5768 5771 5776 5778 5778 5782 5786 5786 5794 5807 5812 5814 5818 5822 5827 5830 5833 5837 5840 5843 5846 5849 5851 5854 5855
5704 5700 5698 5695 5692 5688 5686 5683 5681 5678 5676 5674 5672 5671 5669 5668 5667 5665 5662 5660 5656 5654 5652 5649 5647 5645 5643 5642 5641 5640 5640 5640 5641 5642 5643 5645 5648 5651 5655 5658 5661 5664 5666 5669 5671 5673 5678 5682 5689 5702 5711 5717 5725 5729 5730 5734 5738 5741 5746 5750 5754 5757 5761 5764 5768 5772 5773 5774 5779 5782 5782 5793 5806 5810 5811 5815 5819 5823 5827 5829 5833 5836 5839 5842 5845 5848 5851 5853
5701 5697 5694 5692 5688 5685 5682 5679 5677 5674 5672 5670 5668 5667 5665 5664 5662 5659 5656 5653 5649 5646 5643 5640 5638 5637 5635 5633 5632 5631 5632 5632 5633 5634 5635 5637 5639 5642 5647 5651 5654 5658 5660 5662 5664 5666 5671 5676 5683 5695 5705 5711 5717 5720 5721 5726 5731 5735 5740 5744 5748 5752 5756 5762 5766 5768 5767 5770 5776 5778 5781 5795 5806 5807 5809 5812 5815 5819 5823 5826 5829 5832 5835 5838 5841 5844 5847 5849
5698 5694 5691 5688 5685 5682 5679 5676 5674 5671 5669 5667 5665 5663 5661 5659 5656 5653 5650 5647 5643 5639 5636 5632 5630 5629 5628 5626 5626 5626 5626 5627 5628 5628 5629 5631 5633 5636 5640 5644 5648 5652 5654 5656 5658 5661 5666 5670 5676 5686 5695 5702 5707 5711 5714 5719 5723 5728 5733 5738 5743 5748 5753 5759 5762 5761 5764 5770 5774 5775 5783 5796 5802 5802 5805 5808 5810 5814 5818 5821 5824 5827 5830 5833 5836 5839 5842 5844
5695 5691 5688 5686 5683 5679 5677 5674 5671 5668 5666 5664 5661 5659 5656 5653 5650 5647 5643 5640 5637 5632 5629 5626 5624 5623 5622 5622 5622 5622 5622 5622 5623 5624 5625 5626 5629 5631 5634 5637 5641 5645 5647 5650 5653 5656 5660 5663 5669 5677 5686 5695 5702 5706 5709 5714 5718 5724 5729 5734 5739 5744 5749 5753 5754 5757 5764 5770 5770 5773 5785 5795 5795 5797 5801 5804 5806 5810 5813 5816 5820 5823 5827 5829 5831 5833 5836 5839
5692 5688 5685 5683 5680 5676 5673 5670 5668 5665 5663 5661 5658 5655 5652 5648 5645 5641 5637 5634 5630 5626 5622 5621 5620 5619 5619 5619 5619 5619 5619 5619 5619 5620 5621 5622 5624 5627 5629 5631 5634 5637 5641 5644 5647 5651 5653 5657 5663 5670 5679 5688 5695 5700 5704 5709 5715 5721 5726 5730 5735 5740 5743 5747 5751 5758 5764 5766 5768 5774 5785 5791 5791 5795 5798 5800 5803 5806 5809 5812 5816 5820 5823 5825 5827 5829 5831 5833
5691 5686 5683 5680 5677 5674 5671 5668 5665 5663 5660 5658 5655 5652 5649 5645 5641 5636 5632 5628 5624 5621 5618 5616 5616 5616 5616 5617 5617 5617 5617 5617 5617 5617 5618 5619 5621 5622 5625 5627 5629 5631 5634 5638 5642 5645 5647 5651 5657 5663 5671 5680 5689 5696 5700 5704 5710 5716 5721 5726 5730 5734 5738 5744 5750 5757 5760 5762 5767 5774 5783 5788 5790 5793 5795 5797 5800 5803 5806 5809 5812 5815 5819 5821 5823 5825 5828 5830
5689 5685 5681 5678 5675 5672 5669 5666 5663 5660 5657 5655 5652 5649 5646 5642 5638 5633 5628 5624 5620 5617 5615 5614 5614 5614 5614 5614 5615 5615 5615 5614 5615 5615 5615 5615 5617 5618 5620 5622 5624 5626 5628 5631 5636 5639 5642 5647 5652 5655 5662 5673 5684 5692 5696 5699 5705 5712 5717 5722 5725 5730 5736 5741 5747 5753 5756 5759 5765 5773 5782 5788 5789 5789 5791 5793 5796 5799 5803 5805 5808 5811 5815 5817 5820 5822 5825 5827
5688 5684 5680 5677 5673 5670 5667 5664 5661 5658 5656 5652 5649 5646 5643 5639 5634 5629 5625 5620 5617 5614 5613 5613 5613 5613 5612 5612 5612 5612 5612 5612 5612 5612 5612 5612 5613 5614 5615 5617 5619 5620 5622 5626 5630 5633 5638 5642 5645 5648 5655 5667 5678 5686 5691 5694 5700 5708 5713 5717 5721 5726 5732 5737 5743 5749 5752 5756 5763 5772 5781 5786 5787 5787 5788 5790 5793 5796 5799 5801 5805 5808 5811 5814 5817 5819 5822 5824
5687 5683 5680 5676 5672 5669 5666 5663 5660 5656 5654 5650 5647 5644 5640 5636 5631 5627 5622 5618 5615 5613 5612 5611 5611 5611 5610 5610 5609 5609 5609 5609 5609 5609 5609 5609 5610 5610 5611 5613 5614 5615 5618 5620 5623 5629 5633 5637 5640 5643 5650 5661 5671 5679 5686 5690 5696 5703 5707 5711 5716 5721 5727 5734 5739 5744 5748 5753 5761 5769 5775 5780 5783 5784 5785 5787 5790 5793 5796 5799 5803 5806 5809 5812 5814 5816 5818 5821
5686 5683 5679 5675 5672 5669 5665 5662 5658 5655 5652 5649 5646 5642 5638 5634 5629 5625 5620 5616 5614 5613 5611 5610 5609 5608 5608 5607 5607 5606 5606 5606 5606 5605 5605 5606 5606 5607 5608 5609 5610 5611 5613 5615 5618 5624 5628 5631 5635 5639 5644 5655 5665 5673 5681 5687 5692 5697 5701 5706 5712 5718 5724 5731 5736 5741 5744 5749 5757 5764 5769 5775 5779 5781 5782 5785 5787 5790 5794 5797 5800 5804 5807 5810 5812 5814 5816 5818